"startDT [UTC]","vpos","CH4 [ppm]","stdev(CH4) [ppm]","CO2 [ppm]","stdev(CO2) [ppm]","H2O [ppm]","stdev(H2O)","p_LGR [torr]","T_LGR [C]","mt1_LGR [us]","mt2_LGR [us]","T_ECpre [C]","T_EC1 [C]","T_EC2 [C]","p_inlet [hPa]","p_in [hPa]","p_out [hPa]","T_inlet [C]","RH_inlet [%]","dwpt_inlet [C]","T_vent [C]","RH_vent [%]","dwpt_vent [C]","flow_vent [l min-1]","flow_inlet [l min-1]","dwpt_sample [C]","T_room [C]"
2012-06-14 00:00:00,0.0,,,,,,,,,,,0.95,-13.80,-26.33,-64,553,-940,29.1,27.3,8.3,28.9,1.4,-28.8,5.73,2.34,-26.1,33.1
2012-06-14 00:01:00,0.0,,,,,,,,,,,0.96,-12.26,-26.34,-64,553,-941,29.0,27.4,8.4,29.0,1.4,-29.1,5.73,2.33,-26.1,33.1
2012-06-14 00:02:00,0.0,,,,,,,,,,,0.94,-10.79,-26.35,-64,553,-940,29.1,27.4,8.4,29.0,1.3,-29.4,5.73,2.34,-26.0,33.1
2012-06-14 00:03:00,0.0,,,,,,,,,,,0.93,-9.39,-26.36,-64,553,-940,29.1,27.5,8.4,29.0,1.3,-29.4,5.73,2.35,-26.1,33.1
2012-06-14 00:04:00,0.0,,,,,,,,,,,0.90,-8.07,-26.36,-64,553,-941,29.1,27.5,8.4,29.0,1.3,-29.6,5.73,2.35,-26.1,33.1
2012-06-14 00:05:00,0.0,,,,,,,,,,,0.92,-6.82,-26.36,-64,553,-940,29.1,27.5,8.4,29.0,1.3,-29.8,5.73,2.35,-26.0,33.1
2012-06-14 00:06:00,0.0,,,,,,,,,,,0.90,-5.63,-26.36,-64,553,-941,29.1,27.5,8.4,29.0,1.3,-30.0,5.73,2.34,-26.0,33.1
2012-06-14 00:07:00,0.0,,,,,,,,,,,0.92,-4.50,-26.36,-64,553,-940,29.1,27.6,8.4,29.0,1.2,-30.1,5.73,2.34,-26.0,33.2
2012-06-14 00:08:00,0.0,,,,,,,,,,,0.93,-3.44,-26.35,-64,553,-940,29.1,27.6,8.5,29.0,1.2,-30.2,5.73,2.34,-26.0,33.1
2012-06-14 00:09:00,0.0,,,,,,,,,,,0.95,-2.42,-26.35,-64,553,-941,29.1,27.6,8.5,29.0,1.2,-30.3,5.73,2.34,-26.0,33.2
2012-06-14 00:10:00,0.0,,,,,,,,,,,0.94,-1.46,-26.34,-64,553,-940,29.1,27.5,8.5,29.0,1.2,-30.4,5.73,2.35,-26.0,33.2
2012-06-14 00:11:00,0.0,,,,,,,,,,,0.94,-0.54,-26.33,-64,553,-941,29.1,27.6,8.5,29.0,1.2,-30.5,5.73,2.36,-26.0,33.1
2012-06-14 00:12:00,0.0,,,,,,,,,,,0.95,0.33,-26.33,-64,553,-940,29.1,27.8,8.6,29.0,1.2,-30.5,5.73,2.35,-26.0,33.1
2012-06-14 00:13:00,0.0,1.8846,0.0008,399.62,0.17,2.5,9.0,138.08,30.08,24.63,36.34,0.96,1.15,-26.32,-64,553,-940,29.1,27.6,8.5,29.0,1.2,-30.7,5.73,2.34,-26.0,33.1
2012-06-14 00:14:00,0.0,1.8849,0.0008,399.53,0.18,5.6,13.4,138.08,30.08,24.63,36.35,0.96,1.94,-26.31,-64,553,-941,29.1,27.6,8.5,29.0,1.2,-30.8,5.73,2.34,-26.0,33.1
2012-06-14 00:15:00,0.0,1.8846,0.0008,399.60,0.24,6.3,14.3,138.07,30.08,24.64,36.35,0.96,2.64,-26.30,-64,553,-940,29.1,27.6,8.5,29.0,1.2,-30.8,5.73,2.34,-26.0,33.1
2012-06-14 00:16:00,0.0,,,,,,,,,,,0.97,3.09,-26.29,-64,553,-941,29.1,27.5,8.5,29.0,1.2,-30.8,5.73,2.35,-26.1,33.1
2012-06-14 00:17:00,0.0,,,,,,,,,,,0.97,3.48,-26.28,-64,553,-940,29.1,27.5,8.5,29.1,1.1,-31.0,5.73,2.36,-26.1,33.1
2012-06-14 00:18:00,0.0,,,,,,,,,,,0.95,4.00,-26.27,-64,553,-940,29.1,27.4,8.4,29.1,1.1,-30.9,5.73,2.36,-26.1,33.1
2012-06-14 00:19:00,0.0,,,,,,,,,,,0.97,4.52,-26.26,-64,553,-941,29.1,27.5,8.5,29.1,1.1,-31.0,5.73,2.35,-26.1,33.1
2012-06-14 00:20:00,0.0,,,,,,,,,,,0.95,5.08,-26.24,-64,553,-940,29.1,27.6,8.5,29.1,1.1,-31.0,5.73,2.34,-26.1,33.1
2012-06-14 00:21:00,0.0,,,,,,,,,,,0.97,5.61,-26.23,-64,553,-941,29.1,27.6,8.5,29.1,1.1,-31.0,5.73,2.33,-26.1,33.1
2012-06-14 00:22:00,0.0,,,,,,,,,,,0.96,6.13,-26.22,-64,553,-940,29.1,27.5,8.5,29.1,1.1,-31.1,5.73,2.34,-26.1,33.2
2012-06-14 00:23:00,0.0,,,,,,,,,,,0.96,6.63,-26.21,-64,553,-941,29.1,27.5,8.5,29.1,1.1,-31.2,5.73,2.35,-26.1,33.2
2012-06-14 00:24:00,0.0,,,,,,,,,,,0.96,7.11,-26.20,-64,553,-941,29.1,27.4,8.4,29.1,1.1,-31.3,5.73,2.36,-26.1,33.2
2012-06-14 00:25:00,0.0,,,,,,,,,,,0.94,7.56,-26.19,-64,553,-940,29.2,27.3,8.4,29.1,1.1,-31.2,5.73,2.35,-26.0,33.2
2012-06-14 00:26:00,0.0,,,,,,,,,,,0.94,8.00,-26.18,-64,553,-941,29.2,27.4,8.5,29.1,1.1,-31.3,5.73,2.33,-26.0,33.2
2012-06-14 00:27:00,0.0,,,,,,,,,,,0.94,8.42,-26.17,-64,553,-940,29.2,27.3,8.4,29.1,1.1,-31.2,5.73,2.33,-26.0,33.3
2012-06-14 00:28:00,0.0,,,,,,,,,,,0.96,8.82,-26.16,-64,553,-941,29.2,27.5,8.5,29.1,1.1,-31.3,5.73,2.34,-26.0,33.3
2012-06-14 00:29:00,0.0,,,,,,,,,,,0.97,9.22,-26.15,-64,553,-940,29.2,27.3,8.4,29.2,1.1,-31.1,5.73,2.35,-26.0,33.3
2012-06-14 00:30:00,0.0,,,,,,,,,,,0.94,9.60,-26.13,-64,553,-940,29.2,27.3,8.4,29.2,1.1,-31.1,5.73,2.35,-26.0,33.3
2012-06-14 00:31:00,0.0,,,,,,,,,,,0.97,9.97,-26.12,-64,553,-941,29.2,27.3,8.4,29.2,1.1,-31.2,5.73,2.34,-26.0,33.3
2012-06-14 00:32:00,0.0,,,,,,,,,,,0.96,10.33,-26.11,-64,553,-940,29.2,27.4,8.4,29.2,1.1,-31.2,5.73,2.33,-26.0,33.3
2012-06-14 00:33:00,0.0,,,,,,,,,,,0.96,10.68,-26.10,-64,553,-941,29.2,27.4,8.5,29.2,1.1,-31.2,5.73,2.33,-26.0,33.2
2012-06-14 00:34:00,0.0,,,,,,,,,,,0.96,11.03,-26.09,-64,553,-941,29.2,27.4,8.5,29.2,1.1,-31.2,5.73,2.34,-26.1,33.2
2012-06-14 00:35:00,0.0,,,,,,,,,,,0.94,11.36,-26.07,-64,553,-940,29.2,27.3,8.5,29.2,1.1,-31.2,5.73,2.35,-26.0,33.2
2012-06-14 00:36:00,0.0,,,,,,,,,,,0.96,11.68,-26.06,-64,553,-941,29.2,27.4,8.5,29.2,1.1,-31.1,5.73,2.35,-26.1,33.2
2012-06-14 00:37:00,0.0,,,,,,,,,,,0.97,11.99,-26.05,-64,554,-940,29.2,27.3,8.4,29.2,1.1,-31.2,5.73,2.34,-26.1,33.1
2012-06-14 00:38:00,0.0,,,,,,,,,,,0.97,12.29,-26.03,-64,553,-940,29.2,27.2,8.4,29.2,1.1,-31.1,5.73,2.33,-26.1,33.1
2012-06-14 00:39:00,0.0,,,,,,,,,,,0.96,12.57,-26.02,-64,554,-941,29.2,27.3,8.4,29.2,1.1,-31.2,5.73,2.33,-26.1,33.2
2012-06-14 00:40:00,0.0,,,,,,,,,,,0.95,12.84,-26.02,-64,553,-940,29.2,27.0,8.3,29.2,1.1,-31.1,5.73,2.34,-26.1,33.3
2012-06-14 00:41:00,0.0,,,,,,,,,,,0.95,13.11,-26.00,-64,553,-941,29.2,27.1,8.4,29.2,1.1,-31.2,5.73,2.35,-26.1,33.2
2012-06-14 00:42:00,0.0,,,,,,,,,,,0.94,13.36,-26.00,-64,553,-940,29.2,27.3,8.5,29.2,1.1,-31.2,5.73,2.35,-26.1,33.3
2012-06-14 00:43:00,0.0,,,,,,,,,,,0.97,13.60,-25.99,-64,554,-941,29.3,27.5,8.6,29.2,1.1,-31.2,5.73,2.34,-26.1,33.2
2012-06-14 00:44:00,0.0,,,,,,,,,,,0.97,13.83,-25.98,-64,554,-941,29.3,26.9,8.3,29.2,1.1,-31.2,5.73,2.32,-26.1,33.1
2012-06-14 00:45:00,0.0,,,,,,,,,,,0.97,14.06,-25.97,-64,554,-940,29.3,27.2,8.4,29.2,1.1,-31.2,5.73,2.33,-26.1,33.1
2012-06-14 00:46:00,0.0,,,,,,,,,,,0.96,14.27,-25.97,-64,554,-941,29.3,27.1,8.4,29.2,1.1,-31.1,5.73,2.34,-26.1,33.1
2012-06-14 00:47:00,0.0,,,,,,,,,,,0.97,14.48,-25.95,-64,554,-940,29.3,26.5,8.1,29.2,1.1,-31.2,5.73,2.35,-26.1,33.1
2012-06-14 00:48:00,0.0,,,,,,,,,,,0.97,14.67,-25.95,-64,554,-941,29.3,26.8,8.2,29.2,1.1,-31.2,5.73,2.35,-26.1,33.1
2012-06-14 00:49:00,0.0,,,,,,,,,,,0.97,14.86,-25.94,-64,554,-941,29.3,26.7,8.2,29.3,1.1,-31.2,5.73,2.33,-26.1,33.2
2012-06-14 00:50:00,0.0,,,,,,,,,,,0.98,15.04,-25.94,-64,554,-940,29.3,26.7,8.2,29.3,1.1,-31.1,5.73,2.32,-26.1,33.2
2012-06-14 00:51:00,0.0,,,,,,,,,,,0.96,15.21,-25.93,-64,554,-941,29.3,27.1,8.4,29.3,1.1,-31.1,5.73,2.33,-26.1,33.2
2012-06-14 00:52:00,0.0,,,,,,,,,,,0.96,15.38,-25.92,-64,554,-951,29.3,27.1,8.4,29.3,1.1,-31.2,5.73,2.35,-26.1,33.3
2012-06-14 00:53:00,0.0,,,,,,,,,,,0.97,15.53,-25.92,-64,554,-941,29.3,27.2,8.5,29.3,1.1,-31.2,5.73,2.34,-26.1,33.3
2012-06-14 00:54:00,0.0,,,,,,,,,,,0.96,15.68,-25.91,-64,554,-941,29.3,27.0,8.4,29.3,1.1,-31.1,5.73,2.33,-26.1,33.3
2012-06-14 00:55:00,0.0,,,,,,,,,,,0.97,15.83,-25.90,-64,554,-940,29.3,26.9,8.3,29.3,1.1,-31.2,5.73,2.32,-26.1,33.3
2012-06-14 00:56:00,0.0,,,,,,,,,,,0.97,15.96,-25.90,-64,554,-941,29.4,26.8,8.3,29.3,1.1,-31.1,5.73,2.33,-26.1,33.3
2012-06-14 00:57:00,0.0,,,,,,,,,,,0.96,16.10,-25.89,-64,554,-940,29.4,26.8,8.3,29.3,1.1,-31.2,5.73,2.34,-26.1,33.3
2012-06-14 00:58:00,0.0,,,,,,,,,,,0.97,16.22,-25.88,-64,554,-941,29.4,26.8,8.3,29.3,1.1,-31.1,5.73,2.35,-26.1,33.3
2012-06-14 00:59:00,0.0,,,,,,,,,,,0.96,16.35,-25.88,-64,554,-941,29.4,26.9,8.3,29.3,1.1,-31.2,5.73,2.34,-26.1,33.3
2012-06-14 01:00:00,0.0,,,,,,,,,,,0.96,16.46,-25.87,-64,554,-940,29.4,26.8,8.3,29.3,1.1,-31.2,5.73,2.32,-26.1,33.4
2012-06-14 01:01:00,0.0,,,,,,,,,,,0.97,16.58,-25.86,-65,554,-941,29.4,27.4,8.6,29.3,1.1,-31.1,5.73,2.32,-26.1,33.4
2012-06-14 01:02:00,0.0,,,,,,,,,,,0.96,16.68,-25.86,-65,554,-940,29.4,27.1,8.5,29.3,1.1,-31.1,5.73,2.33,-26.1,33.4
2012-06-14 01:03:00,0.0,,,,,,,,,,,0.96,16.78,-25.86,-65,554,-941,29.4,27.0,8.4,29.4,1.1,-31.1,5.73,2.34,-26.1,33.4
2012-06-14 01:04:00,0.0,,,,,,,,,,,0.96,16.88,-25.84,-64,554,-941,29.4,26.8,8.4,29.4,1.1,-31.0,5.73,2.34,-26.1,33.5
2012-06-14 01:05:00,0.0,,,,,,,,,,,0.96,16.97,-25.84,-64,554,-940,29.4,27.1,8.5,29.4,1.1,-31.1,5.73,2.33,-26.1,33.4
2012-06-14 01:06:00,0.0,,,,,,,,,,,0.97,17.06,-25.84,-64,554,-941,29.5,27.1,8.5,29.4,1.1,-31.1,5.73,2.32,-26.1,33.5
2012-06-14 01:07:00,0.0,,,,,,,,,,,0.97,17.15,-25.83,-64,554,-941,29.5,27.1,8.5,29.4,1.1,-31.1,5.73,2.33,-26.0,33.4
2012-06-14 01:08:00,0.0,,,,,,,,,,,0.96,17.23,-25.83,-65,554,-941,29.5,27.1,8.5,29.4,1.1,-31.1,5.73,2.34,-26.1,33.5
2012-06-14 01:09:00,0.0,,,,,,,,,,,0.97,17.31,-25.82,-65,555,-941,29.5,26.7,8.3,29.4,1.1,-31.0,5.73,2.34,-26.0,33.5
2012-06-14 01:10:00,0.0,,,,,,,,,,,0.96,17.38,-25.82,-65,555,-940,29.5,26.9,8.4,29.4,1.1,-31.0,5.73,2.33,-26.0,33.4
2012-06-14 01:11:00,0.0,,,,,,,,,,,0.96,17.45,-25.81,-65,554,-941,29.5,27.1,8.6,29.4,1.1,-31.0,5.73,2.31,-26.1,33.5
2012-06-14 01:12:00,0.0,,,,,,,,,,,0.96,17.52,-25.80,-65,554,-940,29.5,26.8,8.4,29.4,1.1,-31.0,5.73,2.32,-26.1,33.5
2012-06-14 01:13:00,0.0,1.8846,0.0008,399.62,0.17,2.5,9.0,138.08,30.08,24.63,36.34,0.96,17.59,-25.80,-64,555,-941,29.5,26.8,8.4,29.4,1.1,-31.0,5.73,2.34,-26.1,33.5
2012-06-14 01:14:00,0.0,1.8849,0.0008,399.53,0.18,5.6,13.4,138.08,30.08,24.63,36.35,0.97,17.65,-25.80,-65,555,-941,29.5,26.8,8.4,29.5,1.1,-31.1,5.73,2.34,-26.0,33.5
2012-06-14 01:15:00,0.0,1.8846,0.0008,399.60,0.24,6.3,14.3,138.07,30.08,24.64,36.35,0.96,17.71,-25.79,-65,554,-941,29.5,26.8,8.4,29.5,1.1,-31.1,5.73,2.32,-26.0,33.6
2012-06-14 01:16:00,0.0,,,,,,,,,,,0.96,17.77,-25.79,-65,554,-941,29.5,27.0,8.5,29.5,1.1,-31.0,5.73,2.31,-26.1,33.5
2012-06-14 01:17:00,0.0,,,,,,,,,,,0.95,17.81,-25.79,-65,555,-941,29.5,26.9,8.5,29.5,1.1,-31.0,5.73,2.32,-26.1,33.5
2012-06-14 01:18:00,0.0,,,,,,,,,,,0.98,17.87,-25.79,-65,555,-941,29.5,26.9,8.5,29.5,1.1,-31.0,5.73,2.34,-26.1,33.4
2012-06-14 01:19:00,0.0,,,,,,,,,,,0.97,17.92,-25.78,-65,555,-941,29.5,27.1,8.6,29.5,1.1,-31.1,5.73,2.34,-26.1,33.5
2012-06-14 01:20:00,0.0,,,,,,,,,,,0.96,17.97,-25.78,-65,555,-941,29.5,27.0,8.6,29.5,1.1,-31.0,5.73,2.32,-26.1,33.5
2012-06-14 01:21:00,0.0,,,,,,,,,,,0.97,18.03,-25.77,-65,555,-941,29.6,27.1,8.6,29.5,1.1,-31.0,5.73,2.31,-26.1,33.6
2012-06-14 01:22:00,0.0,,,,,,,,,,,0.97,18.07,-25.77,-65,555,-941,29.6,26.9,8.5,29.5,1.1,-31.0,5.73,2.32,-26.1,33.6
2012-06-14 01:23:00,0.0,,,,,,,,,,,0.97,18.11,-25.77,-65,555,-941,29.6,27.0,8.6,29.5,1.1,-31.0,5.73,2.34,-26.1,33.6
2012-06-14 01:24:00,0.0,,,,,,,,,,,0.96,18.15,-25.76,-65,555,-941,29.6,26.8,8.5,29.5,1.1,-31.0,5.73,2.33,-26.1,33.5
2012-06-14 01:25:00,0.0,,,,,,,,,,,0.96,18.19,-25.76,-65,555,-941,29.6,26.8,8.5,29.5,1.1,-31.0,5.73,2.31,-26.1,33.6
2012-06-14 01:26:00,0.0,,,,,,,,,,,0.98,18.23,-25.76,-65,555,-941,29.6,26.6,8.4,29.6,1.1,-31.0,5.73,2.31,-26.0,33.6
2012-06-14 01:27:00,0.0,,,,,,,,,,,0.97,18.27,-25.76,-65,555,-940,29.6,26.7,8.5,29.6,1.1,-31.0,5.73,2.32,-26.1,33.5
2012-06-14 01:28:00,0.0,,,,,,,,,,,0.96,18.31,-25.76,-65,555,-941,29.6,26.9,8.6,29.6,1.1,-31.2,5.73,2.34,-26.1,33.6
2012-06-14 01:29:00,0.0,,,,,,,,,,,0.99,18.34,-25.75,-65,555,-941,29.6,26.8,8.5,29.6,1.1,-31.3,5.73,2.32,-26.1,33.7
2012-06-14 01:30:00,0.0,,,,,,,,,,,0.97,18.37,-25.74,-65,555,-941,29.6,26.8,8.5,29.6,1.1,-31.1,5.73,2.31,-26.1,33.6
2012-06-14 01:31:00,0.0,,,,,,,,,,,0.98,18.40,-25.75,-65,555,-941,29.6,26.6,8.4,29.6,1.1,-31.3,5.73,2.31,-26.1,33.6
2012-06-14 01:32:00,0.0,,,,,,,,,,,0.97,18.43,-25.74,-65,555,-940,29.7,26.6,8.4,29.6,1.1,-31.2,5.73,2.33,-26.1,33.6
2012-06-14 01:33:00,0.0,,,,,,,,,,,0.98,18.46,-25.74,-65,555,-941,29.7,26.6,8.4,29.6,1.1,-31.2,5.73,2.33,-26.1,33.6
2012-06-14 01:34:00,0.0,,,,,,,,,,,0.97,18.49,-25.74,-65,555,-941,29.7,26.5,8.4,29.6,1.1,-31.3,5.73,2.32,-26.1,33.6
2012-06-14 01:35:00,0.0,,,,,,,,,,,1.00,18.51,-25.73,-65,555,-941,29.7,26.5,8.4,29.6,1.1,-31.2,5.73,2.30,-26.1,33.6
2012-06-14 01:36:00,0.0,,,,,,,,,,,0.97,18.54,-25.73,-65,555,-941,29.7,26.5,8.4,29.6,1.1,-31.3,5.73,2.32,-26.1,33.6
2012-06-14 01:37:00,0.0,,,,,,,,,,,0.96,18.56,-25.73,-65,555,-941,29.7,26.7,8.5,29.6,1.1,-31.2,5.73,2.33,-26.1,33.6
2012-06-14 01:38:00,0.0,,,,,,,,,,,0.99,18.59,-25.72,-65,555,-941,29.7,26.6,8.5,29.7,1.1,-31.1,5.73,2.32,-26.1,33.6
2012-06-14 01:39:00,0.0,,,,,,,,,,,0.97,18.61,-25.72,-65,555,-941,29.7,26.7,8.5,29.7,1.1,-31.2,5.73,2.31,-26.1,33.6
2012-06-14 01:40:00,0.0,,,,,,,,,,,0.97,18.63,-25.72,-65,555,-941,29.7,26.7,8.5,29.7,1.1,-31.2,5.73,2.30,-26.1,33.6
2012-06-14 01:41:00,0.0,,,,,,,,,,,0.98,18.65,-25.72,-65,555,-941,29.7,26.6,8.5,29.7,1.1,-31.2,5.73,2.32,-26.1,33.7
2012-06-14 01:42:00,0.0,,,,,,,,,,,0.96,18.67,-25.71,-65,555,-941,29.7,26.7,8.6,29.7,1.1,-31.2,5.73,2.33,-26.1,33.7
2012-06-14 01:43:00,0.0,,,,,,,,,,,0.97,18.69,-25.71,-65,555,-941,29.7,26.6,8.5,29.7,1.1,-31.2,5.73,2.32,-26.1,33.6
2012-06-14 01:44:00,0.0,,,,,,,,,,,0.97,18.70,-25.71,-65,555,-941,29.8,26.8,8.6,29.7,1.1,-31.2,5.73,2.30,-26.1,33.6
2012-06-14 01:45:00,0.0,,,,,,,,,,,0.96,18.73,-25.71,-65,555,-941,29.8,26.7,8.6,29.7,1.1,-31.1,5.73,2.31,-26.1,33.7
2012-06-14 01:46:00,0.0,,,,,,,,,,,0.97,18.74,-25.70,-65,555,-941,29.8,26.8,8.7,29.7,1.1,-31.1,5.73,2.33,-26.1,33.7
2012-06-14 01:47:00,0.0,,,,,,,,,,,0.97,18.76,-25.70,-65,555,-941,29.8,26.6,8.6,29.7,1.1,-31.2,5.73,2.32,-26.1,33.7
2012-06-14 01:48:00,0.0,,,,,,,,,,,0.96,18.77,-25.70,-65,555,-941,29.8,26.6,8.6,29.7,1.1,-31.2,5.73,2.31,-26.1,33.7
2012-06-14 01:49:00,0.0,,,,,,,,,,,0.96,18.79,-25.69,-65,555,-941,29.8,26.6,8.5,29.7,1.1,-31.2,5.73,2.30,-26.1,33.7
2012-06-14 01:50:00,0.0,,,,,,,,,,,0.96,18.80,-25.69,-65,556,-941,29.8,26.5,8.5,29.8,1.1,-31.2,5.73,2.32,-26.0,33.8
2012-06-14 01:51:00,0.0,,,,,,,,,,,1.04,18.54,-25.69,-65,556,-941,29.8,26.4,8.5,29.7,1.1,-31.2,5.73,2.32,-26.0,33.8
2012-06-14 01:52:00,0.0,,,,,,,,,,,1.13,16.85,-25.69,-65,556,-941,29.8,26.3,8.4,29.8,1.1,-31.2,5.73,2.32,-26.0,33.8
2012-06-14 01:53:00,0.0,,,,,,,,,,,1.07,14.60,-25.69,-65,556,-941,29.8,26.4,8.4,29.8,1.1,-31.1,5.73,2.30,-26.0,33.9
2012-06-14 01:54:00,0.0,,,,,,,,,,,1.02,12.27,-25.69,-65,556,-942,29.9,26.2,8.3,29.8,1.1,-31.3,5.73,2.31,-26.0,33.9
2012-06-14 01:55:00,0.0,,,,,,,,,,,1.13,9.99,-25.67,-65,556,-941,29.9,26.1,8.3,29.8,1.1,-31.1,5.73,2.33,-26.0,33.9
2012-06-14 01:56:00,0.0,,,,,,,,,,,1.08,7.80,-25.66,-65,556,-942,29.9,26.0,8.3,29.8,1.1,-31.2,5.73,2.32,-26.0,33.9
2012-06-14 01:57:00,0.0,,,,,,,,,,,1.03,5.69,-25.64,-65,556,-941,29.9,26.1,8.4,29.8,1.1,-31.0,5.73,2.31,-26.0,33.8
2012-06-14 01:58:00,0.0,,,,,,,,,,,1.12,3.69,-25.62,-65,556,-942,29.9,26.2,8.4,29.8,1.1,-30.8,5.73,2.30,-26.0,33.8
2012-06-14 01:59:00,0.0,,,,,,,,,,,1.08,1.80,-25.60,-65,556,-941,29.9,26.1,8.3,29.8,1.1,-30.8,5.73,2.31,-26.0,33.8
2012-06-14 02:00:00,0.0,,,,,,,,,,,1.02,-0.00,-25.58,-65,556,-941,29.9,25.8,8.2,29.9,1.1,-30.8,5.73,2.33,-26.0,33.8
2012-06-14 02:01:00,0.0,,,,,,,,,,,1.09,-1.69,-25.56,-65,556,-941,29.9,25.9,8.3,29.9,1.1,-30.7,5.73,2.31,-26.0,33.9
2012-06-14 02:02:00,0.0,,,,,,,,,,,1.11,-3.29,-25.55,-65,556,-941,29.9,25.8,8.2,29.9,1.1,-30.7,5.73,2.30,-26.0,33.9
2012-06-14 02:03:00,0.0,,,,,,,,,,,1.01,-4.79,-25.53,-65,556,-942,29.9,25.6,8.1,29.9,1.1,-30.8,5.73,2.31,-26.0,33.9
2012-06-14 02:04:00,0.0,,,,,,,,,,,1.07,-6.18,-25.52,-65,556,-941,30.0,25.4,8.0,29.9,1.1,-30.8,5.73,2.32,-26.0,34.0
2012-06-14 02:05:00,0.0,,,,,,,,,,,1.12,-7.44,-25.51,-65,556,-942,30.0,25.3,8.0,29.9,1.1,-30.8,5.73,2.32,-26.0,34.0
2012-06-14 02:06:00,0.0,,,,,,,,,,,1.04,-8.60,-25.50,-65,556,-941,30.0,25.3,8.0,29.9,1.1,-30.9,5.73,2.30,-26.0,34.0
2012-06-14 02:07:00,0.0,,,,,,,,,,,1.01,-9.56,-25.50,-65,556,-942,30.0,25.3,8.0,29.9,1.1,-30.7,5.73,2.30,-25.9,34.0
2012-06-14 02:08:00,0.0,,,,,,,,,,,1.07,-10.76,-25.49,-65,556,-941,30.0,25.2,8.0,30.0,1.1,-30.7,5.73,2.32,-25.9,34.1
2012-06-14 02:09:00,0.0,,,,,,,,,,,1.11,-11.78,-25.49,-65,556,-942,30.0,25.2,8.0,29.9,1.1,-30.9,5.73,2.32,-25.9,34.1
2012-06-14 02:10:00,0.0,,,,,,,,,,,1.03,-12.65,-25.49,-65,556,-941,30.0,25.1,7.9,30.0,1.1,-30.8,5.73,2.30,-25.9,34.1
2012-06-14 02:11:00,0.0,,,,,,,,,,,1.02,-13.38,-25.49,-65,556,-942,30.1,25.1,7.9,30.0,1.1,-30.7,5.73,2.30,-25.9,34.0
2012-06-14 02:12:00,0.0,,,,,,,,,,,1.07,-14.27,-25.48,-65,557,-942,30.1,24.9,7.8,30.0,1.1,-30.7,5.73,2.31,-25.9,33.9
2012-06-14 02:13:00,0.0,1.8846,0.0008,399.62,0.17,2.5,9.0,138.08,30.08,24.63,36.34,1.11,-15.13,-25.48,-65,557,-941,30.1,24.8,7.7,30.0,1.1,-30.9,5.73,2.32,-26.0,34.0
2012-06-14 02:14:00,0.0,1.8849,0.0008,399.53,0.18,5.6,13.4,138.08,30.08,24.63,36.35,1.03,-15.91,-25.49,-65,556,-942,30.1,24.8,7.8,30.0,1.1,-30.7,5.73,2.31,-26.0,34.0
2012-06-14 02:15:00,0.0,1.8846,0.0008,399.60,0.24,6.3,14.3,138.07,30.08,24.64,36.35,1.01,-16.64,-25.49,-65,557,-941,30.1,24.7,7.8,30.0,1.1,-30.7,5.73,2.29,-25.9,34.1
2012-06-14 02:16:00,0.0,,,,,,,,,,,1.06,-17.34,-25.50,-65,557,-942,30.1,24.8,7.8,30.0,1.1,-30.8,5.73,2.30,-25.9,34.1
2012-06-14 02:17:00,0.0,,,,,,,,,,,1.10,-17.98,-25.50,-65,557,-941,30.1,24.8,7.8,30.0,1.1,-30.9,5.73,2.32,-25.9,34.1
2012-06-14 02:18:00,0.0,,,,,,,,,,,1.03,-18.60,-25.51,-65,557,-942,30.1,24.9,7.9,30.1,1.1,-31.0,5.73,2.31,-25.9,34.1
2012-06-14 02:19:00,0.0,,,,,,,,,,,0.99,-19.18,-25.51,-65,557,-941,30.1,24.9,7.9,30.1,1.1,-30.9,5.73,2.30,-25.9,34.1
2012-06-14 02:20:00,0.0,,,,,,,,,,,1.07,-19.73,-25.52,-65,557,-942,30.2,25.0,8.0,30.1,1.1,-30.8,5.73,2.29,-25.9,34.2
2012-06-14 02:21:00,0.0,,,,,,,,,,,1.10,-20.26,-25.53,-65,557,-942,30.2,24.8,7.9,30.1,1.1,-30.9,5.73,2.31,-25.9,34.2
2012-06-14 02:22:00,0.0,,,,,,,,,,,1.03,-20.75,-25.54,-65,557,-942,30.2,24.9,7.9,30.1,1.1,-30.9,5.73,2.32,-25.9,34.2
2012-06-14 02:23:00,0.0,,,,,,,,,,,1.00,-21.21,-25.54,-65,557,-942,30.2,24.7,7.8,30.2,1.1,-30.7,5.73,2.30,-25.9,34.2
2012-06-14 02:24:00,0.0,,,,,,,,,,,1.06,-21.64,-25.55,-65,557,-941,30.2,24.8,7.8,30.2,1.1,-30.7,5.73,2.29,-25.9,34.3
2012-06-14 02:25:00,0.0,,,,,,,,,,,1.10,-22.05,-25.56,-65,557,-942,30.2,24.7,7.8,30.1,1.1,-31.0,5.73,2.31,-25.8,34.3
2012-06-14 02:26:00,0.0,,,,,,,,,,,1.05,-22.43,-25.56,-65,557,-941,30.2,24.7,7.8,30.1,1.0,-31.3,5.73,2.32,-25.8,34.3
2012-06-14 02:27:00,0.0,,,,,,,,,,,0.99,-22.80,-25.57,-65,557,-942,30.3,24.9,8.0,30.2,1.1,-31.1,5.73,2.31,-25.8,34.3
2012-06-14 02:28:00,0.0,,,,,,,,,,,1.02,-23.14,-25.58,-65,557,-941,30.3,24.8,7.9,30.2,1.0,-31.3,5.73,2.29,-25.8,34.3
2012-06-14 02:29:00,0.0,,,,,,,,,,,1.09,-23.47,-25.59,-65,557,-942,30.2,24.7,7.9,30.3,1.0,-31.8,5.73,2.30,-25.8,34.3
2012-06-14 02:30:00,0.0,,,,,,,,,,,1.07,-23.78,-25.60,-65,557,-942,30.3,24.8,7.9,30.2,1.0,-31.8,5.73,2.32,-25.8,34.3
2012-06-14 02:31:00,0.0,,,,,,,,,,,1.01,-24.08,-25.61,-65,557,-942,30.3,24.6,7.8,30.2,1.0,-31.8,5.73,2.30,-25.8,34.3
2012-06-14 02:32:00,0.0,,,,,,,,,,,1.00,-24.35,-25.62,-65,557,-942,30.3,24.6,7.9,30.3,1.0,-31.8,5.73,2.29,-25.8,34.4
2012-06-14 02:33:00,0.0,,,,,,,,,,,1.05,-24.61,-25.62,-65,557,-942,30.3,24.7,7.9,30.3,1.0,-31.7,5.73,2.30,-25.8,34.4
2012-06-14 02:34:00,0.0,,,,,,,,,,,1.10,-24.85,-25.63,-65,557,-942,30.3,24.8,8.0,30.3,1.0,-31.9,5.73,2.32,-25.8,34.4
2012-06-14 02:35:00,0.0,,,,,,,,,,,1.05,-25.08,-25.64,-65,557,-942,30.3,24.8,7.9,30.3,1.0,-31.8,5.73,2.31,-25.8,34.4
2012-06-14 02:36:00,0.0,,,,,,,,,,,0.99,-25.29,-25.64,-65,557,-942,30.4,24.7,8.0,30.3,1.0,-31.9,5.73,2.29,-25.8,34.4
2012-06-14 02:37:00,0.0,,,,,,,,,,,1.03,-25.50,-25.65,-65,557,-942,30.4,24.8,8.0,30.3,1.0,-32.1,5.73,2.30,-25.8,34.4
2012-06-14 02:38:00,0.0,,,,,,,,,,,0.97,-25.54,-25.66,-65,557,-942,30.4,24.7,7.9,30.4,1.0,-31.9,5.73,2.32,-25.8,34.4
2012-06-14 02:39:00,0.0,,,,,,,,,,,1.09,-25.24,-25.66,-65,557,-942,30.4,24.7,8.0,30.4,1.0,-31.9,5.73,2.30,-25.8,34.4
2012-06-14 02:40:00,0.0,,,,,,,,,,,1.09,-25.33,-25.67,-65,558,-942,30.4,24.7,8.0,30.4,1.0,-31.9,5.73,2.28,-25.8,34.4
2012-06-14 02:41:00,0.0,,,,,,,,,,,1.02,-25.50,-25.68,-65,558,-942,30.4,24.8,8.0,30.4,1.0,-32.1,5.73,2.30,-25.8,34.4
2012-06-14 02:42:00,0.0,,,,,,,,,,,0.94,-25.62,-25.68,-65,558,-942,30.4,24.9,8.1,30.4,1.0,-32.1,5.73,2.31,-25.8,34.4
2012-06-14 02:43:00,0.0,,,,,,,,,,,1.04,-25.29,-25.69,-65,558,-942,30.4,25.0,8.2,30.4,1.0,-32.0,5.73,2.31,-25.9,34.3
2012-06-14 02:44:00,0.0,,,,,,,,,,,1.05,-25.33,-25.70,-65,557,-942,30.4,25.0,8.1,30.4,1.0,-32.1,5.73,2.28,-25.9,34.3
2012-06-14 02:45:00,0.0,,,,,,,,,,,1.09,-25.49,-25.71,-66,558,-942,30.4,25.1,8.2,30.4,1.0,-32.0,5.73,2.29,-25.9,34.3
2012-06-14 02:46:00,0.0,,,,,,,,,,,1.03,-25.66,-25.72,-66,558,-942,30.5,25.2,8.3,30.4,1.0,-31.9,5.73,2.32,-25.9,34.4
2012-06-14 02:47:00,0.0,,,,,,,,,,,1.01,-25.40,-25.72,-65,558,-942,30.4,25.3,8.3,30.4,1.0,-32.1,5.73,2.30,-25.9,34.5
2012-06-14 02:48:00,0.0,,,,,,,,,,,0.99,-25.32,-25.73,-65,558,-942,30.4,25.4,8.4,30.4,1.0,-32.1,5.73,2.28,-25.8,34.5
2012-06-14 02:49:00,0.0,,,,,,,,,,,1.03,-25.47,-25.74,-66,558,-942,30.4,25.2,8.3,30.4,1.0,-31.9,5.73,2.30,-25.8,34.5
2012-06-14 02:50:00,0.0,,,,,,,,,,,0.92,-25.65,-25.23,-66,558,-942,30.5,25.2,8.3,30.4,0.9,-32.2,5.73,2.31,-25.8,34.5
2012-06-14 02:51:00,0.0,,,,,,,,,,,0.92,-25.83,-23.52,-65,558,-942,30.5,25.2,8.4,30.4,1.0,-31.2,5.73,2.29,-25.8,34.5
2012-06-14 02:52:00,0.0,,,,,,,,,,,0.95,-25.92,-21.55,-65,558,-942,30.5,25.2,8.4,30.4,1.2,-29.8,5.73,2.29,-25.8,34.6
2012-06-14 02:53:00,0.0,,,,,,,,,,,0.96,-25.96,-19.59,-65,558,-942,30.5,25.3,8.4,30.4,1.3,-28.8,5.73,2.31,-25.8,34.6
2012-06-14 02:54:00,0.0,,,,,,,,,,,0.97,-25.97,-17.72,-66,558,-942,30.5,25.4,8.5,30.5,1.3,-28.6,5.73,2.31,-25.8,34.6
2012-06-14 02:55:00,0.0,,,,,,,,,,,0.94,-25.95,-15.93,-66,558,-942,30.5,25.2,8.4,30.5,1.3,-28.6,5.73,2.29,-25.8,34.6
2012-06-14 02:56:00,0.0,,,,,,,,,,,0.88,-25.93,-14.24,-65,558,-942,30.5,25.2,8.4,30.5,1.3,-28.8,5.73,2.29,-25.8,34.6
2012-06-14 02:57:00,0.0,,,,,,,,,,,0.86,-25.90,-12.65,-66,558,-942,30.6,25.3,8.5,30.5,1.3,-29.1,5.73,2.31,-25.8,34.6
2012-06-14 02:58:00,0.0,,,,,,,,,,,0.88,-25.86,-11.13,-66,558,-943,30.6,25.3,8.5,30.5,1.2,-29.4,5.73,2.31,-25.8,34.6
2012-06-14 02:59:00,0.0,,,,,,,,,,,0.91,-25.83,-9.69,-66,558,-942,30.6,25.2,8.4,30.5,1.2,-29.5,5.73,2.29,-25.8,34.6
2012-06-14 03:00:00,0.0,,,,,,,,,,,0.94,-25.80,-8.33,-66,558,-943,30.6,25.2,8.4,30.5,1.2,-29.6,5.73,2.29,-25.8,34.5
2012-06-14 03:01:00,0.0,,,,,,,,,,,0.94,-25.76,-7.04,-66,558,-942,30.6,25.3,8.5,30.5,1.2,-29.9,5.73,2.32,-25.8,34.5
2012-06-14 03:02:00,0.0,,,,,,,,,,,0.96,-25.73,-5.82,-66,558,-942,30.6,25.3,8.5,30.5,1.2,-30.0,5.73,2.30,-25.8,34.6
2012-06-14 03:03:00,0.0,,,,,,,,,,,0.96,-25.70,-4.65,-66,558,-942,30.6,25.3,8.5,30.5,1.1,-30.1,5.73,2.28,-25.7,34.7
2012-06-14 03:04:00,0.0,,,,,,,,,,,0.96,-25.66,-3.54,-66,558,-943,30.6,25.3,8.5,30.5,1.1,-30.2,5.73,2.30,-25.7,34.7
2012-06-14 03:05:00,0.0,,,,,,,,,,,0.91,-25.63,-2.49,-66,558,-942,30.6,25.2,8.4,30.6,1.1,-30.3,5.73,2.32,-25.7,34.6
2012-06-14 03:06:00,0.0,,,,,,,,,,,0.90,-25.61,-1.48,-66,558,-943,30.7,25.2,8.5,30.6,1.1,-30.6,5.73,2.29,-25.7,34.7
2012-06-14 03:07:00,0.0,,,,,,,,,,,0.90,-25.57,-0.53,-66,558,-942,30.7,25.2,8.5,30.6,1.1,-30.5,5.73,2.29,-25.7,34.6
2012-06-14 03:08:00,0.0,,,,,,,,,,,0.92,-25.55,0.37,-66,558,-942,30.6,25.1,8.4,30.6,1.1,-30.6,5.73,2.31,-25.7,34.7
2012-06-14 03:09:00,0.0,,,,,,,,,,,0.93,-25.53,1.23,-66,558,-942,30.7,25.2,8.4,30.6,1.1,-30.7,5.73,2.31,-25.7,34.7
2012-06-14 03:10:00,0.0,,,,,,,,,,,0.92,-25.50,2.03,-66,559,-942,30.6,25.2,8.5,30.6,1.1,-30.7,5.73,2.29,-25.7,34.6
2012-06-14 03:11:00,0.0,,,,,,,,,,,0.95,-25.48,2.76,-66,558,-942,30.7,25.1,8.4,30.6,1.1,-30.8,5.73,2.29,-25.7,34.7
2012-06-14 03:12:00,0.0,,,,,,,,,,,0.93,-25.46,3.24,-66,559,-942,30.7,25.0,8.4,30.6,1.1,-30.7,5.73,2.31,-25.6,34.7
2012-06-14 03:13:00,0.0,1.8846,0.0008,399.62,0.17,2.5,9.0,138.08,30.08,24.63,36.34,0.96,-25.43,3.48,-66,559,-943,30.7,25.1,8.4,30.6,1.1,-30.8,5.73,2.30,-25.6,34.7
2012-06-14 03:14:00,0.0,1.8849,0.0008,399.53,0.18,5.6,13.4,138.08,30.08,24.63,36.35,0.97,-25.42,3.84,-66,559,-942,30.7,25.1,8.5,30.6,1.0,-31.0,5.73,2.29,-25.6,34.7
2012-06-14 03:15:00,0.0,1.8846,0.0008,399.60,0.24,6.3,14.3,138.07,30.08,24.64,36.35,0.97,-25.39,4.38,-66,559,-943,30.7,25.1,8.4,30.6,1.0,-31.0,5.73,2.29,-25.6,34.7
2012-06-14 03:16:00,0.0,,,,,,,,,,,0.97,-25.37,4.98,-66,559,-942,30.7,24.9,8.4,30.7,1.0,-31.0,5.73,2.31,-25.5,34.7
2012-06-14 03:17:00,0.0,,,,,,,,,,,0.97,-25.36,5.60,-66,559,-943,30.7,25.2,8.5,30.7,1.0,-31.0,5.73,2.30,-25.5,34.8
2012-06-14 03:18:00,0.0,,,,,,,,,,,0.97,-25.34,6.16,-66,559,-942,30.7,25.0,8.4,30.7,1.0,-31.0,5.73,2.28,-25.5,34.8